This is the latest recevied weather packets stored in our database for station/object NA9VY-8. If no packets are shown the sender has not sent any weather packets the latest 10 day(s).
| Time | Temp. | Humidity | Pressure | Rain* | Wind** | Luminosity | Snow |
|---|---|---|---|---|---|---|---|
| 1777346720 | 15.56° C | 99% | 1012.2 hPa | 0 mm | - | 0 W/m² | - |
| 1777346415 | 15.56° C | 99% | 1012.4 hPa | 0 mm | - | 0 W/m² | - |
| 1777346113 | 15.56° C | 99% | 1012.8 hPa | 0 mm | - | 0 W/m² | - |
| 1777345810 | 16.11° C | 99% | 1012.4 hPa | 0 mm | - | 0 W/m² | - |
| 1777345508 | 16.11° C | 99% | 1012.7 hPa | 0 mm | - | 0 W/m² | - |
| 1777345204 | 16.11° C | 99% | 1012.9 hPa | 0 mm | - | 0 W/m² | - |
| 1777344900 | 16.11° C | 99% | 1012.6 hPa | 0 mm | - | 0 W/m² | - |
| 1777344596 | 16.11° C | 99% | 1013.1 hPa | 0 mm | - | 0 W/m² | - |
| 1777344293 | 16.11° C | 99% | 1012 hPa | 0 mm | - | 0 W/m² | - |
| 1777343990 | 16.11° C | 99% | 1013 hPa | 4.83 mm | - | 0 W/m² | - |
| 1777343688 | 16.11° C | 99% | 1013.1 hPa | 13.72 mm | - | 0 W/m² | - |
| 1777343385 | 16.11° C | 99% | 1013.6 hPa | 9.65 mm | - | 0 W/m² | - |
| 1777343084 | 16.11° C | 99% | 1013 hPa | 1.78 mm | - | 0 W/m² | - |
| 1777342779 | 16.11° C | 99% | 1013.4 hPa | 1.27 mm | - | 0 W/m² | - |
| 1777342477 | 16.11° C | 99% | 1013 hPa | 0 mm | - | 0 W/m² | - |
| 1777342174 | 16.11° C | 99% | 1013.1 hPa | 0 mm | - | 0 W/m² | - |
| 1777341870 | 16.11° C | 99% | 1013.6 hPa | 0 mm | - | 0 W/m² | - |
| 1777341566 | 16.11° C | 99% | 1013.3 hPa | 0 mm | - | 0 W/m² | - |
| 1777341262 | 16.11° C | 99% | 1012.7 hPa | 0 mm | - | 0 W/m² | - |
| 1777340959 | 16.11° C | 99% | 1012.8 hPa | 0 mm | - | 0 W/m² | - |
| 1777340657 | 16.11° C | 99% | 1012.4 hPa | 0 mm | - | 0 W/m² | - |
| 1777340355 | 16.11° C | 99% | 1012.7 hPa | 0.51 mm | - | 0 W/m² | - |
| 1777340051 | 16.11° C | 99% | 1012.5 hPa | 0.51 mm | - | 0 W/m² | - |
| 1777339749 | 16.11° C | 99% | 1012.9 hPa | 0 mm | - | 0 W/m² | - |
| 1777339447 | 16.11° C | 99% | 1012.3 hPa | 0 mm | - | 0 W/m² | - |
* Rain latest hour (hover to see other rain measurements)
** Current wind speed in m/s (hover to see current wind gust speed)